{"data":{"norad_id":67821,"epoch":"2026-09-20T15:55:50.533248Z","epoch_age_seconds":79920,"freshness":"FRESH","line1":"1 67821U 26033A   26263.66377932  .00015862  00000+0  58492-3 0  9992","line2":"2 67821  43.0020 245.8710 0001758 272.6487  87.4164 15.27566689 34494","mean_motion":15.27566689,"eccentricity":0.0001758,"inclination_deg":43.002,"raan_deg":245.871,"arg_perigee_deg":272.6487,"mean_anomaly_deg":87.4164,"bstar":0.00058492,"rev_number":3449,"period_min":94.267570140763,"perigee_km":481.88275072893,"apogee_km":484.29515777445,"semimajor_km":6861.2259542517,"source":"CELESTRAK","updated_at":"2026-09-21T09:00:36.295238Z"}}